SCP
0 0 0 0 0 0 0 0 0 0 0 0 0 0 0 0 0 0 0 0 0 0 0 0 0 0 0 0 0 0 0 0 0 0 0 0 0 0
0 0 0 0 0 0 0 0 0 0 0 0 0 0 0 0 0 0 0 0 0 0 0 0 0 0 0 0 0 0 0 0 0 0 0 0 0 0
0 0 0 0 0 0 0 0 0 0 0 0 0 0 0 0 0 0 0 0 0 0 0 0 0 0 0 0 0 0 0 0 0 0 0 0 0 0
0 0 0 0 0 0 0 0 0 0 0 0 0 0 0 0 0 0 0 0 0 0 0 0 0 0 0 0 0 0 0 0 0 0 0 0 0 0
0 0 0 0 0 0 0 0 0 0 0 0 0 0 0 0 0 0 0 0 0 0 0 0 0 0 0 0 0 0 0 0 0 0 0 0 0 0
0 0 0 0 0 0 0 0 0 0 0 0 0 0 0 0 0 0 0 0 0 0 0 0 0 0 0 0 0 0 0 0 0 0 0 0 0 0
0 0 0 0 0 0 0 0 0 0 0 0 0 0 0 0 0 0 0 0 0 0 0 0 0 0 0 0 0 0 0 0 0 0 0 0 0 0
0 0 0 0 0 0 0 0 0 0 0 0 0 0 0 0 0 0 0 0 0 0 0 0 0 0 0 0 0 0 0 0 0 0 0 0 0 0
0 0 0 0 0 0 0 0 0 0 0 0 0 0 0 0 0 0 0 0 0 0 0 0 0 0 0 0 0 0 0 0 0 0 0 0 0 0
0 0 0 0 0 0 0 0 0 0 0 0 0 0 0 0 0 0 0 0 0 0 0 0 0 0 0 0 0 0 0 0 0 0 0 0 0 0
0 0 0 0 0 0 0 0 0 0 0 0 0 0 0 0 0 0 0 0 0 0 0 0 0 0 0 0 0 0 0 0 0 0 0 0 0 0
0 0 0 0 0 0 0 0 0 0 0 0 0 0 0 0 0 0 0 0 0 0 0 0 0 0 0 0 0 0 0 0 0 0 0 0 0 0
0 0 0 0 0 0 0 0 0 0 0 0 0 0 0 0 0 0 0 0 0 0 0 0 0 0 0 0 0 0 0 0 0 0 0 0 0 0
0 0 0 0 0 0 0 0 0 0 0 0 0 0 0 0 0 0 0 0 0 0 0 0 0 0 0 0 0 0 0 0 0 0 0 0 0 0
0 0 0 0 0 0 0 0 0 0 0 0 0 0 0 0 0 0 0 0 0 0 0 0 0 0 0 0 0 0 0 0 0 0 0 0 0 0
0 0 0 0 0 0 0 0 0 0 0 0 0 0 0 0 0 0 0 0 0 0 0 0 0 0 0 0 0 0 0 0 0 0 0 0 0 -0
0 0 0 0 0 0 0 0 0 0 0 0 0 0 0 0 0 0 0 0 0 0 0 0 0 0 0 0 0 0 0 0 0 0 0 0 -0 -0
0 0 0 0 0 0 0 0 0 0 0 0 0 0 0 0 0 0 0 0 0 0 0 0 0 0 0 0 0 0 0 0 0 0 0 0 0 0
0 0 0 0 0 0 0 0 0 0 0 0 0 0 0 0 0 0 0 0 0 0 0 0 0 0 0 0 0 0 0 0 0 0 0 0 0 0
0 0 0 0 0 0 0 0 0 0 0 0 0 0 0 0 0 0 0 0 0 0 0 0 0 0 0 0 0 0 0 0 0 0 0 0 0 0
0 0 0 0 0 0 0 0 0 0 0 0 0 0 0 0 0 0 0 0 0 0 0 0 0 0 0 0 0 0 0 0 0 0 0 0 0 0
0 0 0 0 0 0 0 0 0 0 0 0 0 0 0 0 0 0 0 0 0 0 0 0 0 0 0 0 0 0 0 0 0 0 0 0 0 0
0 0 0 0 0 0 0 0 0 0 0 0 0 0 0 0 0 0 0 0 0 0 0 0 0 0 0 0 0 0 0 0 0 0 0 0 0 0
Wind_Speed
1 1 1 1 0 0 1 2 2 1 0 0 1 1 1 2 3 2 3 4 5 5 5 5 5 5 5 5 5 5 5 5 6 6 6 5 5 6
1 1 1 1 0 1 1 0 1 2 1 1 1 2 2 2 3 2 3 5 4 3 3 4 4 4 4 4 4 4 5 5 5 5 5 6 5 5
2 2 1 1 1 1 1 1 1 2 2 1 1 2 2 2 2 2 2 2 2 3 3 3 3 3 3 4 4 4 4 4 4 4 4 4 4 4
3 3 2 1 1 1 1 1 1 1 3 2 1 2 2 2 3 2 2 2 2 3 3 3 3 3 3 3 3 3 3 3 3 3 3 3 3 3
3 3 3 3 2 1 2 2 1 1 2 3 2 1 1 2 2 1 1 1 2 3 4 3 3 3 3 2 2 2 2 2 2 2 2 2 2 2
2 2 3 3 3 3 2 2 2 2 2 2 2 2 2 2 3 1 0 0 1 1 2 2 3 4 3 3 2 2 2 1 1 1 1 1 2 2
2 2 2 4 4 2 2 2 2 2 2 2 2 2 2 2 2 2 2 1 1 1 1 1 2 2 2 3 4 4 3 2 2 2 1 1 1 2
2 2 3 4 4 3 3 3 2 3 3 2 2 3 3 3 2 2 2 1 1 1 1 2 2 2 2 2 4 5 5 4 3 3 2 2 2 3
2 2 2 3 4 3 2 2 2 2 4 3 3 4 4 4 4 3 2 3 3 2 2 2 2 2 3 4 8 7 7 5 5 4 4 4 4 4
2 3 3 3 4 4 3 2 2 3 4 3 3 3 2 3 4 4 3 2 1 1 2 2 2 2 2 2 7 8 8 7 7 5 5 5 5 5
2 2 3 4 5 5 4 3 2 2 3 3 3 3 3 4 3 2 2 2 1 2 2 2 1 1 1 2 4 8 8 8 8 7 6 5 5 5
1 2 3 3 5 6 4 4 3 3 2 2 1 2 3 4 5 4 4 3 2 2 2 2 1 1 1 2 2 3 4 6 8 7 7 6 5 3
2 2 2 4 5 6 5 4 5 3 2 3 2 2 2 3 3 3 3 3 3 3 3 2 2 1 2 2 2 3 3 2 3 4 6 7 6 4
2 2 2 5 6 6 5 5 5 3 2 2 2 2 3 2 2 3 3 3 3 3 3 3 2 2 2 2 3 2 2 3 3 3 2 4 6 7
1 2 2 4 5 5 6 6 4 3 2 3 3 4 3 3 2 1 1 1 1 2 2 2 3 2 3 3 3 2 2 2 3 2 2 2 3 2
2 2 2 3 4 4 4 4 3 3 3 3 3 3 2 2 2 2 2 2 1 2 2 2 3 3 3 4 3 3 3 2 2 2 2 2 3 3
2 1 1 1 2 2 3 3 3 3 4 3 3 2 2 3 2 2 2 2 3 3 3 2 2 2 3 3 3 4 3 3 3 3 2 3 4 3
2 2 3 3 3 4 3 3 4 4 4 4 4 3 3 4 3 3 3 3 4 4 3 3 1 1 2 3 5 5 4 4 3 3 3 3 4 3
3 3 4 4 4 4 4 4 4 4 4 4 4 4 4 4 4 4 4 3 4 4 4 3 3 3 4 5 5 5 4 4 3 3 3 4 5 4
4 4 4 4 4 4 4 4 4 4 4 4 4 5 5 4 4 4 5 5 5 4 4 3 4 6 7 6 4 4 6 5 4 4 4 3 3 4
4 4 4 4 4 4 4 4 4 4 4 4 5 5 4 4 4 5 5 6 5 4 5 6 6 6 3 1 3 4 3 5 6 4 3 2 3 3
4 4 4 4 4 4 4 4 4 4 5 5 5 5 4 4 5 5 5 4 5 5 6 4 3 3 3 5 6 6 4 3 4 5 4 5 4 4
5 4 4 4 4 3 3 4 5 4 4 4 4 4 4 4 4 4 5 5 4 5 5 4 3 3 5 5 5 4 4 4 2 2 4 6 8 9
Wind_Direction
142 138 140 154 113 117 112 136 140 137 238 156 88 84 92 101 115 109 109 108 98 87 76 70 70 69 69 69 69 68 68 67 67 64 60 61 63 58
125 107 125 155 119 82 83 65 98 136 147 136 137 139 120 120 121 106 115 116 114 106 91 82 84 84 84 81 78 74 73 68 67 64 57 52 54 55
172 164 193 175 145 130 90 75 61 99 115 99 94 121 122 120 116 116 125 127 131 136 124 106 105 100 99 98 88 81 78 71 72 67 56 50 49 49
191 174 186 164 153 149 134 139 146 136 133 141 137 130 135 147 140 151 147 149 140 156 154 138 138 133 120 111 101 90 85 87 81 67 53 41 39 36
193 184 182 162 177 177 173 168 170 140 125 139 155 156 158 155 133 143 149 138 159 158 160 158 159 158 149 139 123 118 102 97 90 68 51 31 16 13
195 181 169 166 178 180 184 181 164 149 141 143 155 162 167 167 137 148 163 213 197 165 150 160 175 179 181 174 171 162 140 127 128 116 65 19 357 348
181 159 138 130 120 135 151 154 143 145 155 159 167 162 174 170 180 180 177 198 252 179 161 198 196 194 188 198 199 195 193 190 198 202 208 247 297 311
192 175 154 148 141 142 143 129 138 163 172 169 178 185 195 192 184 178 169 162 246 237 167 239 194 193 195 195 199 198 207 210 207 215 228 239 260 279
200 184 176 163 152 152 166 182 197 215 202 187 189 198 191 190 175 183 192 189 211 213 150 242 227 213 213 201 197 200 204 208 214 225 235 246 257 266
208 184 173 157 162 157 169 189 204 220 216 200 192 198 188 178 178 185 189 188 203 215 156 213 239 230 223 209 202 203 205 209 215 224 236 245 255 265
231 197 180 171 181 171 167 185 204 233 211 184 180 180 177 177 167 144 159 158 226 242 185 176 232 247 234 217 215 205 208 214 220 225 234 249 258 263
237 220 197 186 179 175 180 186 203 218 195 181 192 212 206 195 189 179 176 182 194 229 210 171 205 164 277 243 209 204 212 224 225 228 234 242 249 248
219 218 204 193 187 191 199 201 209 203 188 185 195 208 206 197 200 199 183 177 190 221 201 162 189 188 208 268 250 213 202 215 217 229 232 240 244 228
214 211 200 199 199 200 206 217 219 207 192 196 200 209 212 213 205 195 189 186 192 204 195 169 182 195 205 252 266 247 224 214 201 211 221 237 245 244
220 216 228 211 197 200 210 217 210 195 192 204 213 218 210 202 180 174 195 187 207 220 201 192 191 195 196 224 246 243 243 244 208 205 216 220 227 224
243 251 250 220 203 207 210 213 204 200 199 210 218 216 194 184 187 186 198 198 219 267 249 211 203 201 219 230 225 239 226 223 223 217 217 238 240 223
198 207 204 180 204 212 205 203 202 203 213 214 212 211 206 199 204 197 192 193 207 231 255 262 233 210 217 215 229 237 231 234 227 217 215 247 253 235
180 202 214 213 214 214 211 212 210 212 211 209 211 210 206 207 210 206 198 203 218 226 227 226 213 317 315 277 224 226 229 234 234 218 207 232 257 251
194 219 221 223 222 220 216 213 217 218 210 206 210 212 210 210 207 207 206 213 224 228 225 206 190 195 235 259 267 221 216 228 228 233 228 228 244 248
212 225 230 230 227 225 223 218 215 214 213 215 214 213 211 212 213 212 211 215 224 228 227 216 208 210 222 236 248 261 228 215 213 230 241 249 256 261
222 227 232 233 230 232 232 226 218 215 215 215 217 215 214 216 221 218 215 222 225 224 226 230 232 224 219 210 252 259 253 230 218 218 220 231 260 263
226 228 230 232 231 231 236 232 227 223 220 219 219 217 217 218 222 221 216 217 223 227 234 236 223 211 209 222 241 250 254 255 239 238 237 218 211 225
226 227 227 230 233 235 233 234 233 232 227 226 223 219 216 221 224 221 222 223 224 226 230 232 227 219 223 227 237 244 242 243 237 238 258 254 243 245